Weather History for Little Rock AFB, AR

Change the Weather History Date:

Wednesday, August 27, 2014

  Actual Average Record
Temperature  
Mean Temperature 83 °F -  
Max Temperature 93 °F 90 °F 104 °F (1998)
Min Temperature 73 °F 67 °F 58 °F (1966)
Cooling Degree Days 18    
Growing Degree Days 33 (Base 50)    
Moisture  
Dew Point 72 °F    
Average Humidity 78    
Maximum Humidity 96    
Minimum Humidity 46    
Precipitation  
Precipitation 0.00 in - - ()
Sea Level Pressure  
Sea Level Pressure 30.05 in    
Wind  
Wind Speed 1 mph (ESE)    
Max Wind Speed 7 mph    
Max Gust Speed -    
Visibility 9 miles    
Events Rain    
Averages and records for this station are not official NWS values.
T = Trace of Precipitation, MM = Missing Value Source: NWS Daily Summary

Daily Weather History Graph

Daily Weather History Graph

Search for Another Location

Airport:

Trip Planner

Search our weather history database for the weather conditions in past years. The results will help you decide how hot, cold, wet, or windy it might be!

Date:

Astronomy

Aug. 27, 2014 Rise Set
Actual Time 6:37 AM CDT 7:41 PM CDT
Civil Twilight 6:11 AM CDT 8:07 PM CDT
Nautical Twilight 5:40 AM CDT 8:38 PM CDT
Astronomical Twilight 5:08 AM CDT 9:10 PM CDT
Moon 8:27 AM CDT 8:41 PM CDT
Length of Visible Light 13h 56m
Length of Day
13h 04m
Waxing Crescent, 4% of the Moon is Illuminated
Aug 27
Waxing Crescent
Sep 2
First Quarter
Sep 8
Full
Sep 15
Last Quarter
Sep 24
New

Hourly Weather History & Observations

Time (CDT) Temp. Heat Index Dew Point Humidity Pressure Visibility Wind Dir Wind Speed Gust Speed Precip Events Conditions
12:58 AM 76.8 °F - 74.1 °F 91% 30.05 in 10.0 mi Calm Calm - N/A   Clear
1:58 AM 75.9 °F - 73.9 °F 94% 30.05 in 4.0 mi Calm Calm - N/A   Clear
2:38 AM 75.2 °F - 73.4 °F 94% 30.05 in 2.5 mi Calm Calm - N/A   Clear
2:48 AM 75.2 °F - 73.4 °F 94% 30.06 in 3.0 mi Calm Calm - N/A   Clear
2:58 AM 74.8 °F - 73.6 °F 96% 30.06 in 5.0 mi Calm Calm - N/A   Clear
3:58 AM 74.3 °F - 72.9 °F 95% 30.05 in 10.0 mi Calm Calm - 0.00 in Rain Light Rain
3:59 AM 75.2 °F - 73.4 °F 94% 30.05 in 10.0 mi Calm Calm - N/A   Clear
4:58 AM 74.8 °F - 73.2 °F 95% 30.06 in 10.0 mi Calm Calm - 0.00 in   Scattered Clouds
5:58 AM 73.9 °F - 72.9 °F 96% 30.06 in 10.0 mi Calm Calm - N/A   Partly Cloudy
6:58 AM 73.6 °F - 72.5 °F 96% 30.07 in 10.0 mi SE 2.3 mph - N/A   Clear
7:58 AM 76.6 °F - 74.1 °F 92% 30.08 in 10.0 mi Calm Calm - N/A   Clear
8:58 AM 81.7 °F 88.3 °F 75.2 °F 81% 30.09 in 10.0 mi ESE 2.3 mph - N/A   Clear
9:58 AM 85.8 °F 93.4 °F 73.6 °F 67% 30.10 in 10.0 mi Variable 3.5 mph - N/A   Clear
10:58 AM 86.9 °F 93.7 °F 72.3 °F 62% 30.10 in 10.0 mi Variable 2.3 mph - N/A   Partly Cloudy
11:58 AM 86.9 °F 95.4 °F 74.1 °F 66% 30.09 in 10.0 mi Variable 3.5 mph - N/A   Mostly Cloudy
12:58 PM 90.5 °F 98.1 °F 72.1 °F 55% 30.08 in 10.0 mi Variable 3.5 mph - N/A   Scattered Clouds
1:58 PM 90.5 °F 97.5 °F 72.0 °F 54% 30.07 in 10.0 mi Variable 4.6 mph - N/A   Scattered Clouds
2:58 PM 92.3 °F 99.2 °F 71.1 °F 50% 30.05 in 10.0 mi Variable 2.3 mph - N/A   Clear
3:58 PM 93.0 °F 98.4 °F 69.3 °F 46% 30.03 in 10.0 mi ESE 6.9 mph - N/A   Clear
4:58 PM 92.8 °F 98.1 °F 69.3 °F 46% 30.02 in 10.0 mi ESE 5.8 mph - N/A   Clear
5:58 PM 91.6 °F 98.2 °F 71.2 °F 51% 30.00 in 10.0 mi ESE 5.8 mph - N/A   Clear
6:58 PM 87.8 °F 93.8 °F 71.4 °F 58% 30.00 in 10.0 mi South 5.8 mph - N/A   Clear
7:58 PM 80.6 °F 84.9 °F 72.5 °F 76% 30.00 in 10.0 mi ESE 1.2 mph - N/A   Clear
8:58 PM 77.2 °F - 72.0 °F 84% 30.01 in 10.0 mi Calm Calm - N/A   Clear
9:58 PM 75.4 °F - 70.7 °F 85% 30.03 in 10.0 mi Calm Calm - N/A   Clear
10:58 PM 74.3 °F - 70.5 °F 88% 30.03 in 10.0 mi Calm Calm - N/A   Clear
11:58 PM 73.2 °F - 69.4 °F 88% 30.03 in 10.0 mi Calm Calm - N/A   Clear